STARLINK-32083, 60343

Orbit data source: Space-Track

STARLINK-32083, 60343 is a payload satellite in LEO that was launched on Fri, 02 Aug 2024 UTC via an FALCON 9 launch vehicle from the Air Force Eastern Test Range (AFETR). Payload-class satellites include a variety of spacecraft equipped with specific instruments for various scientific and technological missions. These include communications satellites like Starlink; space stations such as the ISS; scientific satellites like the Hubble; Earth observation satellites from companies like Planet Labs, Umbra, and HawkEye 360; GPS; miniature CubeSats for education and research; and military/defense satellites.

Loading next visibility...
Identifier
60343, 2024-136Q
Orbit
LEO
Last TLE update
15 hours ago
Origin
Manufacturer
SpaceX/Seattle
Mission
Operational Commercial Communications
Bus & Motor
STARLINK V2M, Unknown motor
Mass
730 kg wet, ~700 kg dry
Launch date (UTC)
2024-08-02 (10 months ago)
Launch vehicle
FALCON 9
Launch site
Air Force Eastern Test Range (AFETR)
Object type
Payload
Rocket body
Debris
Shape & HBR
Box + 2 Pan, 29 m
Radar Cross Section
33.884 m², Large (>1 m²)

Expand to show TLE details & history

TLE from 15 hours ago
0 STARLINK-32083
1 60343U 24136Q   25140.02495202 -.00000155  00000-0  68998-5 0  9995
2 60343  53.1604 359.6406 0001090  72.4749 287.6371 15.30187184 45655
Epoch: 2025-05-20T00:35Z
TLE epoch observation values (Epoch: 2025-05-20T00:35:55.854Z)
Latitude
-0.00001°
Longitude
112.72872°
Altitude
475.927 km
Speed
7.629 km/s
True Right ascension
23h 58m 33s
True Declination
0° 00' 00"
Sunlit
Object was in daylight at epoch
Visualization orbit readout
Latitude
10.96738°
Longitude
-78.44378°
Altitude
475.416 km
Speed
7.63 km/s
Apparent Right ascension
11h 41m 28s
Apparent Declination
-13° 33' 09"
Sunlit
Object is in daylight
Visualization observer readout
Local Sidereal Time
00:19:29
Azimuth
20.229° NNE
Elevation
-62.346°
Doppler factor
1
Orbital elements
Apogee altitude
476.257 km
Perigee altitude
474.763 km
Semi-major axis
6,853.647 km
Eccentricity
0.00011
Inclination
53.1604°
RAAN
359.6406°
Arg. of periapsis
72.4749°
True anomaly
Unknown
Mean anomaly
287.6371°
Eccentric anomaly
Unknown
Mean motion
3.82526 °/min
Orbital period
94.11 mins
BSTAR
0.0000068998
Loading maneuver chart data...
Loading SW <> Apogee altitude chart data...
Loading historical data...
Loading historical data...
Loading historical data...
Loading historical data...
Loading historical data...
Loading historical data...
Loading historical data...

STARLINK-32083 Visibility forecast

Observer location: undefined°, undefined°

Span
Click to sort rows by Start time (UTC) header in descending order
Start Az.
Max El. time (UTC)
Max El. Az.
Max El.
End time (UTC)
End Az.
5 mins2025-05-20 16:25:48.605Z179.782° S2025-05-20 16:27:48.605Z142.511° SSE21.645°2025-05-20 16:30:48.605Z79.676° E
5 mins2025-05-20 18:03:48.605Z264.85° W2025-05-20 18:05:48.605Z316.902° NNW32.658°2025-05-20 18:08:48.605Z33.641° NE
5 mins2025-05-20 23:00:48.605Z340.309° N2025-05-20 23:02:48.605Z24.819° NE23.884°2025-05-20 23:05:48.605Z85.128° E
5 mins2025-05-21 00:38:48.605Z289.073° WNW2025-05-21 00:40:48.605Z233.386° WSW34.833°2025-05-21 00:43:48.605Z156.13° SSE
|